Погода в Димитровграде

Погода в Димитровграде : погода сейчас, прогноз погоды и архив. Всё, что Вы хотите узнать о погоде в Димитровграде!

Хотите узнать прогноз погоды в Димитровграде? Тогда Вам сюда: Погода в Димитровграде

Поиск расширенной информации на нашем сайте:

Другие новости

Новости СМИ2

Главная страница сайта

Новости сайта

03.07.2017

Напоминаем, что на нашем специализированном сайте Метеоцентр.Азия вы можете получить высокодетализированные автоматические прогнозы погоды по пунктам России, СНГ и мира в авиационном формате (включающие направление и скорость ветра, видимость, явления погоды, количество и форму облачности, нижнюю и верхнюю границу облачности).


Погода в Димитровграде - сегодня

Время (UTC), дата Ветер
(°,м/с) 
Видим.   Явления Облачность Т
(°С)
Тd
(°С)
f(%) Тe
(°С)
Pmin
(гПа)
dP
(гПа)
Po
(мм)
O2
(г/м3)
Тmin Tmax R s Состояние
почвы
21 18.09.17 тихо ()   10 км    ясно 
+10.7 +9.5 92 +11  1015.6  -0.5  755  291           
00 19.09.17 тихо ()   10 км    ясно 
+11.5 +9.6 88 +12  1015.1  -0.5  755  290           
03 19.09.17 тихо ()   10 км    ясно 
+12.6 +9.3 80 +13  1014.6  -0.5  754  289  +10.7        сухая 
06 19.09.17 200 (Ю) 10 км    ясно 
+23.4 +10.5 44 +25  1013.7  -0.5  754  278           
09 19.09.17 190 (Ю) 3-10  10 км    ясно 
+28.3 +9.3 30 +28  1013.4  -0.2  754  274           
12 19.09.17 210 (ЮЗ) 3{10}  10 км    8/0 верхняя 
[Ci fib]
+28.8 +7.6 26 +29  1012.8  -0.5  753  273           
15 19.09.17 230 (ЮЗ) 10 км    8/8 800 м кучево-дожд., верхняя 
[Cb cap|Ci fib]
+24 +10.5 43 +26  1013.3  0.3  754  277    +29.4       
18 19.09.17 270 (З) 10 км    6/0 верхняя 
[Ci sp]
+20 +11.4 58 +23  1015.3  1.9  755  281           
21 19.09.17 300 (СЗ) 10 км    8/0 верхняя 
[Ci sp]
+17.6 +7.2 50 +19  1017.3  1.9  756  285           
00 20.09.17 240 (ЮЗ) 10 км    8/0 верхняя 
[Ci sp]
+10.7 +7.5 81 +12  1019.1  1.6  758  293           
03 20.09.17 тихо ()   10 км    ясно 
+7.7 +6.9 95 +8  1020.6  1.4  759  296  +7.4        сухая 
06 20.09.17 300 (СЗ) 10 км    3/0 верхняя 
[Ci fib]
+17.2 +7.2 52 +18  1021.7  1.3  760  287           
09 20.09.17 300 (СЗ) 10 км    3/0 верхняя 
[Ci fib]
+19.8 +6.2 41 +21  1021.6  760  284           
12 20.09.17 300 (СЗ) 10 км    ясно 
+20.2 +5.3 38 +20  1021.8  0.2  760  284           
15 20.09.17 280 (З) 10 км    1/0 средняя 
[Ac lent]
+12.9 +7.5 70 +14  1022.6  0.6  760  291    +20.4       
18 20.09.17 330 (СЗ) 10 км    ясно 
+9 +7.6 91 +9  1024  1.2  761  296           
21 20.09.17 330 (СЗ) 10 км    ясно 
+7.1 +6 93 +8  1024.6  0.6  762  298           
00 21.09.17 330 (СЗ) 10 км    ясно 
+6.2 +5.3 94 +6  1025.1  0.5  762  299           
03 21.09.17 330 (СЗ) 10 км    1/0 средняя 
[Ac trans]
+5.7 +5 95 +5  1026.3  1.1  763  300  +5.6        сухая 
06 21.09.17 020 (С) 10 км    ясно 
+14.4 +7.6 64 +15  1026.9  0.8  764  291           
09 21.09.17 330 (СЗ) 10 км    6/6 870 м 
[Sc]
+16.3 +7 54 +17  1026.5  -0.3  763  289           
12 21.09.17 010 (С) 10 км    6/6 870 м 
[Sc]
+17.3 +6.1 48 +18  1026.2  -0.2  763  288           
15 21.09.17 020 (С) 10 км    9/9 870 м 
[Sc]
+13.1 +7.5 69 +14  1027.3  0.9  764  292    +18.2       
18 21.09.17 020 (С) 10 км    10/10 840 м 
[Sc]
+12.1 +7.1 71 +12  1028.1  0.8  764  294           
21 21.09.17 010 (С) 10 км    10/10 900 м 
[Sc]
+9.6 +3.9 68 +10  1029.4  1.2  765  297           
Время (UTC), дата Ветер
(°,м/с) 
Видим.   Явления Облачность Т
(°С)
Тd
(°С)
f(%) Тe
(°С)
Pmin
(гПа)
dP
(гПа)
Po
(мм)
O2
(г/м3)
Тmin Tmax R s Состояние
почвы

Для получения пояснительной информации подведите курсор к названию столбца.

ПОГОДА в Димитровграде - архив

Всё, что Вы хотите узнать о погоде в Димитровграде - удобно и подробно!

Выберите нужную дату (начиная с 1 января 2015* года) и нажмите кнопку "Найти".
Будут отображены архивные сводки погоды по пункту Димитровград, начиная с указанной даты.


Отображать данные в формате CSV (для использования в таблицах Excel)


Внимание! Наш архив погоды предназначен исключительно для личного некоммерческого использования в познавательных целях. Если Вам необходимы официальные справки о состоянии погоды (для производственных, юридических, коммерческих и т.п. целей), обращайтесь в органы Росгидромета.

*Примечание: данная дата относится к архиву по метеостанциям СССР (Россия, СНГ, Балтия).
Архив по метеостанциям Зарубежной Европы и Азии (кроме Китая) хранится 10 дней, по другим регионам земного шара (Китай, Африка, Америка, Австралия, Океания) - 1 день.

Димитровград - район местоположения метеостанции


Название, широта, долгота, высота метеостанции:
Димитровград 54.2°ш. 49.6°д. 73 м над ур. моря [Российская Федерация]

Дополнительная информация

В oтличие oт бoльшинства пoгoдных сайтoв мы публикуем пoдрoбную метеoинфoрмацию в детальнoм прoфессиoнальнoм фoрмате.

Характеристики температуры и влажнoсти вoздуха измеряются на высoте 2 м в тени вдали oт зданий и деревьев.
Скoрoсть ветра измеряется на высoте 10 м (на урoвне рoста челoвека скoрoсть ветра ниже в 1.5-2 раза). Если метеoстанция нахoдится в гoрoде или в лесу, тo скoрoсть ветра занижена на 2-4 м/с пo сравнению с oткрытым местoм. Скoрoсть ветра над акватoриями крупных рек и oзёр, а также на вершинах хoлмoв на 2-5 м/с выше, чем в oбычных услoвиях.
Атмoсфернoе давление в разных тoчках местнoсти мoжет значительнo oтличаться oт давления на метеoстанции, в зависимoсти oт услoвий рельефа (при пoдъёме на 10 м давление пoнижается примернo на 1 мм рт.ст.).